Regional Weather Roundup
Issued by NWS State College, PA

Home | Current Version | Previous Version | Text Only | Print | Product List | Glossary On
Versions: 1 2 3 4 5 6 7 8 9 10 11 12 13 14 15 16 17 18 19 20 21 22 23 24 25 26 27 28 29 30 31 32 33 34 35 36 37 38 39 40 41 42 43 44 45 46 47 48 49 50
000
ASUS41 KCTP 242310
RWRCTP

REGIONAL WEATHER ROUNDUP
NATIONAL WEATHER SERVICE STATE COLLEGE PA
700 PM EDT THU APR 24 2014

Note: "fair" indicates few or no clouds below 12,000 feet with no
significant weather and/or obstructions to visibility.

* = STATION THAT DOES NOT REPORT PRECIPITATION /E.G. RAIN...SNOW...ETC/
    THUNDER OR FOG.

PAZ002>004-007>009-013>016-020>023-029>032-250000-
WESTERN PENNSYLVANIA

CITY           SKY/WX    TMP DP  RH WIND       PRES   REMARKS
ERIE           SUNNY     50  14  23 NE9       30.05F
MEADVILLE      SUNNY     55  16  21 NE3       30.00F
FRANKLIN*      SUNNY     57  16  19 SE3       30.03S
NEW CASTLE     FAIR      57  18  22 CALM      30.01F
BEAVER COUNTY  SUNNY     57  19  23 S3        30.01S
BUTLER*        PTSUNNY   57  19  23 SW5       30.03S
PITTSBURGH INT PTSUNNY   59  17  19 VRB3      29.99F
PITTSBURGH     MOSUNNY   60  16  18 CALM      30.00S
INDIANA*       MOSUNNY   55  18  22 CALM      30.02S
LATROBE        SUNNY     57  21  24 N7        30.02S
WASHINGTON CO* PTSUNNY   55  23  28 E3        30.02S
$$

PAZ004>006-010>012-017>019-024>028-033>037-041-042-045-046-049>053-250000-
CENTRAL PENNSYLVANIA

CITY           SKY/WX    TMP DP  RH WIND       PRES   REMARKS
BRADFORD       SUNNY     53  11  18 NE5       30.01S
DUBOIS         SUNNY     58  13  17 CALM      29.99F
CLEARFIELD     SUNNY     59  11  15 NW3       30.00S
JOHNSTOWN      MOSUNNY   53  15  22 N3        30.00S
ALTOONA        SUNNY     57  20  23 NW5       30.00S
STATE COLLEGE  SUNNY     61   9  12 CALM      29.99S
WILLIAMSPORT   CLEAR     59  14  17 N10       30.00R
SELINSGROVE    CLEAR     61  17  18 NE12      30.00R
FT INDIANTOWN  CLEAR     61  13  15 N6        29.99R
CAPITAL CITY   CLEAR     64  12  13 NW9       29.99S
HARRISBURG     PTCLDY    65  18  16 NW7       29.98S
YORK           CLEAR     60  17  18 NW5       29.99S
$$

PAZ038>040-043-044-047-048-054-055-060>062-067>071-250000-
EASTERN PENNSYLVANIA

CITY           SKY/WX    TMP DP  RH WIND       PRES   REMARKS
SCRANTON       CLEAR     54  12  18 NW17G23   30.00R
MOUNT POCONO   CLEAR     49   6  17 NW17G28   29.96R
ALLENTOWN      CLEAR     58  12  16 NW12      29.98R
QUAKERTOWN*    CLEAR     57  14  18 NW10G16   29.98R
READING        CLEAR     60  18  19 NW12      29.97R
LANCASTER      CLEAR     59  16  18 NW7       29.98S
COATESVILLE    CLEAR     57  10  15 NW13G18   29.99S
POTTSTOWN      CLEAR     60  16  18 NW7       29.98R
BLUE BELL      CLEAR     63  12  14 NW8G18    29.96R
DOYLESTOWN     CLEAR     57  13  17 NW13G20   29.96R
WILLOW GROVE   NOT AVBL
NORTH PHILA    CLEAR     62  13  14 N15       29.98R
PHILADELPHIA   PTCLDY    63  10  12 NW15      29.97S
$$



USA.gov is the U.S. government's official web portal to all federal, state and local government web resources and services.